, TX

(GMT )
Port Isabel

Weather History for KPIL - January, 2013

Change the Weather History Date:

Saturday, January 12, 2013

  Actual Average Record
Temperature  
Mean Temperature 77 °F -  
Max Temperature 81 °F - - ()
Min Temperature 73 °F - - ()
Cooling Degree Days 12    
Growing Degree Days 27 (Base 50)    
Moisture  
Dew Point 71 °F    
Average Humidity 85    
Maximum Humidity 94    
Minimum Humidity 69    
Precipitation  
Precipitation 0.00 in - - ()
Sea Level Pressure  
Sea Level Pressure 29.76 in    
Wind  
Wind Speed 18 mph (South)    
Max Wind Speed 29 mph    
Max Gust Speed 41 mph    
Visibility 6 miles    
Events      
T = Trace of Precipitation, MM = Missing Value Source: NWS Daily Summary

Daily Weather History Graph

Daily Weather History Graph

Search for Another Location

Airport or City:

Trip Planner

Search our weather history database for the weather conditions in past years. The results will help you decide how hot, cold, wet, or windy it might be!

Date:

Astronomy

Jan. 12, 2013 Rise Set
Actual Time 7:18 AM CST 5:57 PM CST
Civil Twilight 6:53 AM CST 6:22 PM CST
Nautical Twilight 6:25 AM CST 6:50 PM CST
Astronomical Twilight 5:57 AM CST 7:18 PM CST
Moon 7:47 AM CST (1/12) 7:15 PM CST (1/12)
Length of Visible Light 11h 28m
Length of Day
10h 38m
New Moon, 1% of the Moon is Illuminated
Jan 12
New Moon
Jan 18
First Quarter
Jan 26
Full
Feb 3
Last Quarter
Feb 10
New

Hourly Weather History & Observations

Time (CST) Temp. Heat Index Dew Point Humidity Pressure Visibility Wind Dir Wind Speed Gust Speed Precip Events Conditions
12:34 AM 73.4 °F - 71.6 °F 94% 29.84 in 6.0 mi South 12.7 mph - N/A   Overcast
12:46 AM 73.4 °F - 71.6 °F 94% 29.83 in 6.0 mi South 15.0 mph 21.9 mph N/A   Overcast
12:53 AM 73.9 °F - 71.1 °F 91% 29.83 in 6.0 mi SSE 16.1 mph 21.9 mph N/A   Overcast
1:05 AM 73.4 °F - 71.6 °F 94% 29.82 in 6.0 mi SSE 15.0 mph - N/A   Overcast
1:13 AM 73.4 °F - 71.6 °F 94% 29.82 in 6.0 mi SSE 15.0 mph - N/A   Overcast
1:27 AM 73.4 °F - 71.6 °F 94% 29.81 in 6.0 mi SSE 17.3 mph 25.3 mph N/A   Overcast
1:53 AM 73.9 °F - 71.1 °F 91% 29.81 in 7.0 mi South 17.3 mph 25.3 mph N/A   Overcast
2:53 AM 73.9 °F - 71.1 °F 91% 29.83 in 7.0 mi South 16.1 mph 23.0 mph N/A   Overcast
3:39 AM 73.4 °F - 71.6 °F 94% 29.80 in 7.0 mi South 16.1 mph - N/A   Mostly Cloudy
3:48 AM 73.4 °F - 71.6 °F 94% 29.80 in 7.0 mi South 12.7 mph 20.7 mph N/A   Mostly Cloudy
3:53 AM 73.9 °F - 71.1 °F 91% 29.80 in 7.0 mi South 12.7 mph - N/A   Overcast
4:53 AM 73.9 °F - 70.0 °F 87% 29.77 in 7.0 mi South 18.4 mph 26.5 mph N/A   Partly Cloudy
5:03 AM 73.4 °F - 71.6 °F 94% 29.77 in 7.0 mi South 16.1 mph 26.5 mph N/A   Partly Cloudy
5:53 AM 75.0 °F - 70.0 °F 84% 29.77 in 8.0 mi South 21.9 mph 29.9 mph N/A   Clear
6:53 AM 73.9 °F - 70.0 °F 87% 29.79 in 7.0 mi South 16.1 mph 21.9 mph N/A   Mostly Cloudy
7:01 AM 73.4 °F - 69.8 °F 88% 29.78 in 7.0 mi SSE 18.4 mph 24.2 mph N/A   Mostly Cloudy
7:53 AM 73.9 °F - 70.0 °F 87% 29.81 in 5.0 mi South 16.1 mph 24.2 mph N/A   Overcast
8:51 AM 75.2 °F - 71.6 °F 89% 29.81 in 6.0 mi South 17.3 mph 26.5 mph N/A   Overcast
8:53 AM 75.0 °F - 71.1 °F 87% 29.81 in 6.0 mi South 17.3 mph 26.5 mph N/A   Overcast
9:15 AM 77.0 °F - 71.6 °F 83% 29.81 in 6.0 mi South 21.9 mph 29.9 mph N/A   Haze
9:53 AM 77.0 °F - 71.1 °F 82% 29.81 in 6.0 mi South 21.9 mph 33.4 mph N/A   Haze
10:20 AM 78.8 °F - 69.8 °F 74% 29.81 in 7.0 mi South 21.9 mph 28.8 mph N/A   Mostly Cloudy
10:48 AM 80.6 °F 83.9 °F 69.8 °F 70% 29.80 in 7.0 mi South 25.3 mph 34.5 mph N/A   Scattered Clouds
10:53 AM 80.1 °F 83.2 °F 70.0 °F 71% 29.80 in 7.0 mi South 25.3 mph 40.3 mph N/A   Mostly Cloudy
11:05 AM 80.6 °F 83.9 °F 69.8 °F 70% 29.79 in 7.0 mi South 26.5 mph 38.0 mph N/A   Scattered Clouds
11:13 AM 80.6 °F 83.9 °F 69.8 °F 70% 29.78 in 6.0 mi South 27.6 mph 35.7 mph N/A   Haze
11:53 AM 81.0 °F 84.4 °F 70.0 °F 69% 29.77 in 6.0 mi South 28.8 mph 41.4 mph N/A   Haze
12:53 PM 80.1 °F 83.6 °F 71.1 °F 74% 29.74 in 7.0 mi South 24.2 mph 34.5 mph N/A   Overcast
1:53 PM 80.1 °F 83.6 °F 71.1 °F 74% 29.72 in 6.0 mi South 20.7 mph 32.2 mph N/A   Haze
2:53 PM 80.1 °F 83.6 °F 71.1 °F 74% 29.69 in 6.0 mi South 24.2 mph 35.7 mph N/A   Haze
3:53 PM 79.0 °F - 72.0 °F 79% 29.68 in 6.0 mi South 24.2 mph 33.4 mph N/A   Haze
4:53 PM 78.1 °F - 71.1 °F 79% 29.69 in 6.0 mi South 20.7 mph 31.1 mph N/A   Haze
5:51 PM 75.2 °F - 71.6 °F 89% 29.69 in 5.0 mi South 24.2 mph 31.1 mph N/A   Haze
5:53 PM 75.9 °F - 71.1 °F 85% 29.69 in 5.0 mi South 21.9 mph 31.1 mph N/A   Haze
6:32 PM 75.2 °F - 71.6 °F 89% 29.69 in 6.0 mi South 19.6 mph 27.6 mph N/A   Haze
6:42 PM 75.2 °F - 71.6 °F 89% 29.68 in 6.0 mi South 20.7 mph 29.9 mph N/A   Mostly Cloudy
6:50 PM 75.2 °F - 71.6 °F 89% 29.69 in 6.0 mi South 21.9 mph 31.1 mph N/A   Overcast
7:39 PM 75.2 °F - 71.6 °F 89% 29.67 in 6.0 mi SSE 20.7 mph 29.9 mph N/A   Overcast
7:53 PM 75.0 °F - 72.0 °F 90% 29.68 in 6.0 mi SSE 21.9 mph 31.1 mph N/A   Overcast
8:53 PM 75.0 °F - 71.1 °F 87% 29.68 in 6.0 mi SSE 20.7 mph 25.3 mph N/A   Overcast
9:17 PM 75.2 °F - 71.6 °F 89% 29.68 in 7.0 mi South 19.6 mph 31.1 mph N/A   Mostly Cloudy
9:53 PM 75.0 °F - 71.1 °F 87% 29.68 in 7.0 mi SSE 18.4 mph 28.8 mph N/A   Overcast
10:53 PM 75.0 °F - 71.1 °F 87% 29.70 in 7.0 mi SSE 15.0 mph - N/A   Overcast
11:53 PM 75.0 °F - 71.1 °F 87% 29.70 in 7.0 mi South 16.1 mph 24.2 mph N/A   Overcast